Location: Dreilärchen
(47.9312°N, 8.6113°E)
Time: 00:14:41
(UTC+00:00)

Cosmos 2341 Rocket - Pass Details

Date: 26 May 2022
Orbit: 969 x 1003 km, 82.9° (Epoch: 02 July)

Event Time Altitude Azimuth Distance (km) Brightness Sun altitude
Rises 02:37:21 0° 348° (NNW) 3,735 7.6 -8.4°
Reaches altitude 10° 02:39:54 10° 346° (NNW) 2,784 6.8 -8.1°
Maximum altitude 02:46:13 66° 266° (W) 1,095 4.1 -7.3°
Drops below altitude 10° 02:52:31 10° 186° (S) 2,770 5.9 -6.5°
Sets 02:55:03 0° 184° (S) 3,714 6.6 -6.2°
